Regional Weather Roundup
Issued by NWS

Home | Current Version | Previous Version | Graphics & Text | Print | Product List | Glossary On
Versions: 1 2 3 4 5 6 7 8 9 10 11 12 13 14 15 16 17 18 19 20 21 22 23 24 25 26 27 28 29 30 31 32 33 34 35 36 37 38 39 40 41 42 43 44 45 46 47 48 49 50
000
ASUS44 KMEG 010400
RWRTN
TENNESSEE HOURLY STATE WEATHER ROUNDUP
NATIONAL WEATHER SERVICE MEMPHIS TN
1000 PM CST SAT FEB 28 2015

TNZ002-004-019-021-049-052-054-088>092-010500-
WEST TENNESSEE

CITY           SKY/WX    TMP DP  RH WIND       PRES   REMARKS
MEMPHIS INTL   CLOUDY    40  21  46 N7        30.39S
NWS MEMPHIS      N/A     39 N/A N/A MISG        N/A
JACKSON        MOCLDY    39  23  52 N6        30.40S WCI  35
DYERSBURG      CLOUDY    34  14  44 NE8       30.44F WCI  27
UNION CITY     MOCLDY    30  25  80 NE5       30.41F WCI  25
PARIS          MOCLDY    32  23  69 NE7       30.42S WCI  26
LEXINGTON      CLOUDY    41  23  48 N6        30.37F
SAVANNAH       PTCLDY    48  30  49 CALM      30.37R
$$

TNZ008-025-027-028-033-062-065-066-010500-
NORTH MIDDLE TENNESSEE

CITY           SKY/WX    TMP DP  RH WIND       PRES   REMARKS
NASHVILLE      MOCLDY    41  27  57 SE7       30.39S
CLARKSVILLE    CLOUDY    35  26  69 N6        30.42F WCI  30
COOKEVILLE     PTCLDY    45  30  57 S6        30.42S
CROSSVILLE     CLOUDY    41  27  57 S8        30.43F
$$

TNZ061-075-076-078-094-096-097-010500-
SOUTH MIDDLE TENNESSEE

CITY           SKY/WX    TMP DP  RH WIND       PRES   REMARKS
FAYETTEVILLE   CLOUDY    46  28  49 S9          N/A
TULLAHOMA      CLOUDY    46  27  46 SE15      30.42F
WINCHESTER     CLOUDY    46  30  53 S18       30.44R
COLUMBIA         N/A     46  30  53 SE3       30.37S
SHELBYVILLE    CLOUDY    46  30  53 SE9       30.41F
$$

TNZ017-018-042-046-047-010500-
NORTHEAST TENNESSEE

CITY           SKY/WX    TMP DP  RH WIND       PRES   REMARKS
TRI CITIES     CLOUDY    37  25  61 E6        30.49F WCI  32
ELIZABETHTON   MOCLDY    37  21  52 E7        30.51S WCI  32
$$

TNZ012-013-036-069-073-074-010500-
CENTRAL EAST TENNESSEE

CITY           SKY/WX    TMP DP  RH WIND       PRES   REMARKS
KNOXVILLE      PTCLDY    38  27  64 W6        30.48R WCI  33
OAK RIDGE      CLOUDY    40  27  59 SW3       30.49R
$$

TNZ083-085-099-010500-
SOUTHEAST TENNESSEE

CITY           SKY/WX    TMP DP  RH WIND       PRES   REMARKS
CHATTANOOGA    PTCLDY    45  26  47 S8        30.52R
$$

SKY/WX REPORTED AS FAIR MEANS FEW OR NO CLOUDS BELOW
12 THOUSAND FEET.



USA.gov is the U.S. government's official web portal to all federal, state and local government web resources and services.